Location: Breezy Point Observatory
(38.9725°N, 81.7133°W)
Time: 10:58:08
(UTC-04:00)

HST - Visible Passes

Search period start: 31 October 2014 00:00
Search period end: 09 November 2014 23:00
Orbit: 546 x 550 km, 28.5° (Epoch: 30 October)

Date Brightness Start Highest point End Pass type
(mag) Time Alt. Az. Time Alt. Az. Time Alt. Az.
31 Oct 2.8 20:05:18 10° SW 20:08:10 18° S 20:09:30 16° SSE visible
01 Nov 3.1 19:58:02 10° SW 20:00:42 17° S 20:02:40 13° SSE visible
02 Nov 3.3 18:50:52 10° SW 18:53:14 15° SSW 18:55:36 10° SSE visible
03 Nov 3.4 18:43:50 10° SW 18:45:44 13° SSW 18:47:38 10° SSE visible
04 Nov 3.6 18:37:13 10° SSW 18:38:13 11° SSW 18:39:13 10° S visible
